Wind_Speed
0 2 5 6 6 7 9 9 8 8 7 6 5 5 5 5 4 5 7 6 6 7 7 6 5 5 4 4 2 2 1 1 1 1 2 2 2 3 3 4 4 5 6 7 7 8 8 9 9 9 9 10 10 10 11 11 12 12 12 13 13 13 13 13 13 14 14 14 14 14 14 14 14 15 15 15 15 15 15 15 15 15 15 15 15
4 1 4 7 8 9 10 9 9 8 7 6 5 4 6 5 5 6 8 8 8 8 7 6 6 5 5 3 2 1 0 0 1 1 2 2 3 4 4 5 5 6 6 7 7 8 8 9 9 10 11 11 11 11 12 12 12 12 12 12 12 12 12 12 13 13 14 14 14 14 14 14 14 15 15 14 14 14 14 14 14 14 14 14 14
9 9 8 9 10 10 10 9 8 7 6 7 5 5 6 6 7 8 9 9 8 8 7 6 6 5 4 3 1 1 1 1 2 2 3 3 4 4 4 5 5 6 6 7 7 8 8 9 9 10 10 10 11 11 11 11 11 12 12 12 12 12 12 13 13 14 14 14 14 14 15 14 14 14 14 14 14 14 14 14 15 15 14 15 15
12 13 13 13 12 11 9 9 8 7 6 7 7 7 8 8 9 10 10 9 8 7 6 5 4 4 3 2 2 2 2 2 2 3 3 4 4 5 5 5 6 6 6 7 7 7 8 8 8 9 9 10 10 10 11 11 11 11 11 11 12 12 13 13 14 14 14 15 14 14 14 14 14 14 14 14 14 15 15 15 15 15 15 15 16
13 14 14 14 13 12 11 9 8 7 7 8 9 9 10 10 9 9 8 7 6 6 5 4 3 2 2 2 2 2 2 3 3 4 4 5 5 5 5 6 6 6 6 7 7 8 8 9 9 9 9 10 10 11 11 11 11 11 11 12 12 13 13 13 14 14 14 14 14 14 14 14 14 14 14 15 15 15 16 16 16 16 16 17 17
14 14 14 14 14 13 11 10 9 8 9 10 10 11 10 9 8 7 6 5 5 4 4 4 3 3 3 3 3 3 3 4 4 4 4 5 5 6 6 7 7 7 8 8 8 9 9 9 10 10 10 10 11 11 11 11 11 11 12 12 12 13 13 13 13 13 14 14 13 14 14 14 15 15 15 15 16 16 17 17 17 17 17 18 18
14 14 13 13 13 12 10 9 9 10 10 10 9 9 8 7 6 6 5 4 4 4 4 4 4 4 4 4 4 4 5 5 6 6 6 7 7 8 8 8 8 8 8 9 9 9 9 10 10 10 10 11 11 11 11 11 11 12 12 12 12 13 13 13 13 13 13 13 14 14 15 15 15 16 16 16 17 17 18 18 18 18 18 18 18
13 13 12 12 12 11 10 9 9 10 9 9 8 8 8 8 7 6 5 4 5 5 5 4 4 5 5 5 6 7 8 8 8 8 9 9 9 9 9 9 9 9 9 9 9 9 9 10 10 10 10 10 10 10 11 11 12 12 12 12 12 12 12 13 13 13 13 14 14 15 15 16 16 17 17 17 18 18 19 19 19 19 19 19 19
14 12 12 12 12 11 10 10 10 10 10 9 9 9 9 9 9 7 6 6 6 6 6 6 7 7 7 8 8 9 9 9 9 9 10 9 9 9 9 9 9 9 9 9 9 10 10 10 10 11 11 11 11 11 12 12 12 12 12 12 13 13 13 13 14 14 14 15 15 16 17 17 17 18 18 18 19 19 20 20 20 20 20 20 20
15 13 12 12 12 11 10 10 10 10 10 10 10 9 9 10 9 8 8 8 8 8 8 9 9 9 9 9 9 9 9 9 9 9 9 9 8 8 8 8 9 9 9 10 10 10 11 11 11 12 12 12 12 12 12 12 12 12 13 13 14 14 14 14 15 15 16 16 17 17 18 18 18 18 19 19 20 20 20 20 21 21 21 21 21
17 15 15 14 13 13 12 12 12 12 11 11 11 10 10 11 11 11 10 10 9 10 10 10 10 10 10 10 9 9 9 9 9 9 8 8 8 8 8 9 9 9 10 10 11 11 11 11 12 12 12 12 12 12 12 12 13 13 13 14 14 15 15 15 16 17 17 18 18 18 19 19 19 19 20 20 20 21 21 21 22 22 22 22 22
18 17 16 16 15 14 14 14 14 14 14 13 13 13 13 12 12 12 11 11 10 10 10 10 10 10 9 9 9 9 9 9 9 8 8 8 8 9 9 9 10 10 10 11 11 11 11 11 11 11 12 12 12 12 12 13 13 13 14 14 15 15 16 16 17 18 18 19 19 19 20 20 20 20 21 21 21 21 22 23 23 23 23 23 23
18 18 17 17 16 16 15 15 15 15 15 15 14 14 13 13 13 12 12 11 11 10 10 10 9 9 9 9 9 9 9 9 8 8 8 9 9 9 10 10 10 11 11 11 11 11 11 11 11 12 12 12 12 12 12 13 13 13 14 14 15 15 16 17 17 18 19 19 19 20 20 20 20 21 21 22 22 22 22 23 23 23 23 23 23
18 18 17 17 16 16 15 15 15 15 15 15 14 14 13 13 13 12 12 11 10 10 9 9 9 9 9 9 9 9 9 8 8 8 9 9 9 9 9 10 10 10 11 11 11 11 11 11 11 11 11 12 12 12 12 13 13 13 14 14 15 16 16 17 17 18 18 19 19 19 20 20 20 21 21 22 22 22 22 23 23 23 24 24 24
17 17 17 16 16 16 15 15 15 14 15 14 14 13 13 13 12 12 11 11 10 10 9 9 9 8 8 8 8 8 8 8 8 8 8 8 8 8 8 9 9 9 10 10 10 10 10 11 11 11 11 12 12 12 13 13 13 14 14 15 15 16 16 16 17 17 18 18 19 19 19 20 20 20 21 21 21 22 22 23 23 24 25 25 25
16 16 16 16 16 15 15 15 15 14 14 14 13 13 13 12 12 11 11 11 10 10 9 8 8 8 8 8 8 8 8 7 7 7 7 7 7 7 8 8 8 9 9 9 9 10 10 11 11 11 12 12 12 13 13 14 14 14 15 15 15 16 16 16 17 17 17 18 18 19 19 19 20 20 20 21 21 22 22 23 24 25 25 26 26
15 15 15 15 15 15 15 15 14 14 13 13 13 13 12 12 11 11 11 10 10 9 9 8 7 7 8 8 9 8 8 7 7 7 7 7 7 7 8 8 8 9 9 10 10 10 10 11 11 12 12 12 13 13 14 14 15 15 15 16 16 16 17 17 17 18 18 18 19 19 19 20 20 21 21 22 22 23 23 24 24 25 26 26 26
15 14 14 15 15 15 15 14 14 13 13 13 13 12 12 12 11 11 11 10 10 9 9 8 8 8 9 9 9 9 8 7 7 8 8 7 8 8 8 9 9 9 10 10 10 11 11 11 11 12 12 13 13 14 14 15 15 16 16 17 17 18 18 18 18 19 19 19 20 20 21 21 22 22 23 23 24 24 25 25 25 26 26 27 27
15 14 14 14 15 15 14 14 13 13 13 13 13 12 12 12 11 11 11 11 11 10 9 9 9 9 10 10 10 9 9 8 8 8 8 8 9 9 9 9 9 10 10 10 11 11 11 12 12 13 13 14 14 15 15 16 17 17 18 18 18 19 19 19 20 20 20 20 21 21 22 23 24 24 24 25 25 25 26 27 27 27 28 28 28
14 14 14 14 14 14 14 13 13 13 13 13 12 12 12 12 12 11 11 11 11 11 11 10 10 11 11 11 11 10 9 9 9 9 9 9 9 10 10 10 10 10 11 11 11 12 12 13 13 14 14 15 15 16 16 17 17 18 18 18 19 19 20 20 20 21 21 21 22 22 23 24 24 25 25 25 26 26 27 28 28 29 29 29 30
13 13 13 13 13 13 13 13 13 13 13 13 12 12 12 11 11 11 11 11 11 11 11 11 11 11 11 11 11 10 10 10 10 9 9 9 9 10 10 10 11 11 11 11 12 12 13 13 14 14 15 15 16 16 17 17 17 18 18 19 19 19 20 20 21 21 22 22 22 23 23 24 24 25 25 26 26 27 27 28 29 29 30 30 31
12 12 12 12 12 12 12 12 12 12 12 12 12 11 11 11 10 10 10 10 11 11 11 11 11 11 11 11 11 11 10 10 10 9 9 9 9 9 9 10 10 11 11 11 12 12 13 13 14 14 15 15 16 16 16 17 18 18 19 19 20 20 20 20 21 21 22 22 23 23 23 24 24 25 26 26 27 27 28 28 29 30 30 31 32
11 11 11 11 11 11 11 11 11 11 11 11 11 11 10 10 10 9 9 9 10 10 11 11 11 11 11 11 11 11 10 10 10 10 9 9 9 9 9 9 10 10 11 11 12 12 13 13 14 15 15 16 16 17 17 18 18 19 20 20 20 21 21 21 21 22 22 22 23 23 23 24 24 25 26 26 27 27 28 29 29 30 31 31 32
9 9 9 9 9 9 9 9 9 9 9 9 9 9 9 9 9 9 9 9 9 9 10 10 10 10 10 10 10 10 10 10 10 10 10 9 9 9 9 10 10 10 11 12 12 12 13 13 14 15 16 16 17 17 18 19 19 19 20 20 20 21 21 21 22 22 22 22 22 22 23 23 24 25 26 26 27 28 28 29 30 30 31 32 33
8 8 8 8 8 8 7 7 7 7 7 7 7 7 8 8 9 9 9 9 9 9 9 9 9 9 9 10 10 10 10 10 10 10 10 10 10 10 10 11 11 11 12 12 12 13 13 14 15 15 16 17 17 18 18 19 19 19 19 20 20 20 20 21 21 22 22 22 22 23 23 24 25 25 26 27 28 28 29 30 30 31 32 33 33
6 6 6 6 6 6 6 6 5 6 6 6 6 7 7 7 8 8 8 9 8 8 9 9 9 9 9 9 9 10 10 10 10 10 10 10 10 11 11 11 12 12 13 13 13 14 14 15 15 16 16 17 17 18 18 18 19 19 19 19 20 20 20 20 21 21 22 22 23 24 25 26 26 27 28 28 28 29 29 30 31 32 33 34 35
6 5 4 4 4 4 4 4 4 5 5 6 6 6 7 7 7 7 8 8 8 8 8 8 8 8 8 8 9 9 10 10 10 10 10 10 11 11 12 12 13 13 13 14 14 15 15 15 16 16 17 17 17 18 18 18 19 19 20 20 20 21 21 22 22 23 24 25 25 26 27 28 28 29 30 30 31 31 32 32 33 34 35 36 37
5 4 3 2 2 3 3 4 4 4 5 5 6 6 6 6 6 6 7 7 8 8 8 8 8 8 8 8 9 9 10 10 10 10 10 11 11 12 12 13 13 13 14 14 15 15 15 16 16 16 17 17 18 18 19 19 20 20 21 22 22 23 23 24 25 25 26 27 28 28 28 29 30 31 32 32 33 33 34 35 36 36 37 38 39
4 3 2 1 1 1 2 3 4 5 5 5 6 6 6 6 6 6 6 6 7 7 7 7 8 8 8 8 8 9 9 9 10 10 10 11 11 12 12 12 13 13 14 14 14 15 15 16 17 17 18 18 19 19 20 20 21 22 22 23 24 24 25 26 27 28 28 28 29 30 30 30 30 31 32 33 34 34 35 36 37 38 39 39 40
4 3 2 1 1 1 2 3 4 5 5 6 6 6 6 5 5 5 6 6 6 6 7 7 7 8 8 8 8 8 9 9 9 10 10 10 11 11 11 12 12 12 13 14 14 15 16 17 17 18 19 19 20 20 21 21 22 23 23 24 25 26 27 28 29 29 30 30 30 31 32 32 32 32 33 33 34 35 36 37 38 39 40 41 41
4 3 3 3 3 3 4 4 5 5 6 6 6 6 6 5 5 5 5 6 6 6 6 7 7 8 8 8 8 8 8 8 9 9 9 9 9 10 10 11 12 12 13 14 15 15 16 17 18 19 20 21 21 22 22 23 23 24 24 25 26 26 27 29 30 31 31 32 32 33 34 35 35 34 34 34 35 36 37 38 39 40 41 42 43
5 5 5 5 5 5 6 6 6 6 6 7 7 6 6 6 5 5 5 5 6 6 6 6 7 8 8 8 8 8 8 8 9 9 9 9 10 10 11 11 12 13 14 15 16 17 18 19 20 21 22 23 23 24 24 24 25 25 26 27 27 28 29 30 31 32 33 33 34 34 35 36 37 37 37 37 38 38 38 39 40 41 42 43 44
7 7 6 6 7 7 7 8 8 8 8 7 7 7 6 6 6 6 6 6 6 6 6 6 7 7 8 8 8 9 9 9 10 10 10 11 11 12 13 13 14 15 16 17 18 19 20 21 22 23 24 25 25 26 26 27 27 27 28 29 29 29 30 31 32 33 34 35 36 36 36 37 39 39 40 41 41 41 41 42 43 43 44 45 46
9 8 8 8 8 8 9 9 9 9 9 8 8 7 7 6 6 6 6 6 6 7 7 7 7 7 8 8 9 9 9 10 11 11 12 13 13 14 15 16 17 18 19 20 21 22 22 23 24 24 25 26 27 27 28 29 29 29 29 30 31 31 32 33 34 35 36 37 37 38 38 39 40 41 42 43 43 43 44 44 45 45 46 47 48
10 9 9 9 9 9 9 10 10 10 10 9 9 8 8 7 6 6 7 7 7 8 8 8 8 8 8 9 9 10 10 11 12 13 13 14 15 15 16 17 18 19 21 22 22 23 24 25 25 26 27 27 28 29 29 30 30 31 31 32 32 33 34 35 36 36 37 38 39 39 39 40 41 42 42 43 44 45 45 46 46 47 47 48 49
10 9 10 10 10 10 10 10 10 10 10 10 9 9 9 8 7 7 7 8 8 8 9 9 9 10 10 10 10 10 11 12 13 14 15 16 16 17 18 19 20 21 22 23 24 25 26 27 27 28 29 29 30 31 31 32 32 32 33 33 34 35 36 37 38 38 39 39 40 40 40 41 41 42 43 44 44 45 46 47 48 48 49 50 51
10 10 11 11 11 11 11 11 11 11 10 10 10 10 10 9 9 8 8 9 9 9 10 10 10 11 11 11 12 12 12 13 15 16 17 18 18 19 20 20 21 22 23 24 25 26 27 28 29 30 30 31 32 33 33 34 34 34 35 35 35 36 37 39 39 40 40 40 41 41 41 42 42 43 44 44 44 45 46 48 48 49 50 51 53
11 10 11 11 11 12 12 11 11 11 11 10 11 11 11 11 10 10 10 10 10 11 12 13 13 13 13 14 14 14 14 15 16 18 19 20 20 21 22 22 23 24 24 26 27 28 28 29 30 31 32 33 33 34 34 35 35 36 36 37 38 38 39 40 41 42 42 41 42 43 43 44 45 45 45 45 45 46 47 48 48 49 51 52 54
12 12 12 11 12 12 13 12 11 12 11 11 11 12 12 12 11 11 11 12 12 12 14 15 15 15 16 16 16 17 17 17 18 19 20 22 22 23 24 24 25 26 27 27 28 29 30 31 32 32 33 34 35 36 36 36 36 37 38 39 40 41 41 42 43 43 44 43 44 44 45 46 46 46 46 47 47 48 49 49 49 50 52 53 54
14 13 12 12 13 13 13 13 13 12 12 12 13 13 13 13 12 13 13 13 13 14 16 16 17 17 17 17 18 18 19 20 20 21 21 22 23 24 25 26 27 27 28 29 30 31 32 34 34 34 35 35 36 37 38 38 38 39 40 41 42 43 44 44 44 45 45 45 45 46 46 47 47 47 47 48 48 49 50 51 51 51 52 53 55
15 14 14 14 14 14 14 14 14 13 14 14 14 14 14 14 14 14 15 15 15 16 17 18 18 18 19 19 19 19 20 21 22 23 24 24 25 26 27 28 29 29 30 31 32 33 34 35 36 37 38 38 38 39 40 41 41 41 42 42 43 45 46 46 46 46 46 46 46 47 48 48 48 49 49 49 49 50 51 51 51 52 52 54 55
16 16 16 16 16 16 16 17 16 16 16 16 15 15 15 15 15 15 16 17 18 19 19 20 20 21 21 21 21 21 22 23 23 25 26 26 27 28 28 29 31 32 32 33 34 35 36 37 38 39 40 40 41 41 42 43 44 44 44 44 44 46 47 47 47 47 47 47 48 48 49 49 50 50 50 50 51 51 51 51 51 51 53 53 54
17 17 18 18 18 18 19 19 18 18 18 17 16 16 16 16 16 16 17 18 19 20 21 22 22 23 24 24 24 24 24 25 26 27 28 29 30 31 32 32 33 34 35 36 37 37 38 39 40 41 41 41 42 43 44 45 46 47 46 45 45 46 46 47 49 49 49 50 50 51 51 52 52 52 52 52 53 52 52 51 51 51 52 53 54
19 19 19 19 19 20 20 20 20 20 19 19 18 18 18 17 17 18 18 20 21 21 22 23 24 25 25 26 26 27 27 28 29 29 30 32 33 34 35 35 36 37 37 38 39 39 40 41 41 42 42 42 43 44 45 46 48 49 48 47 47 47 46 47 49 49 50 51 52 53 53 53 54 54 54 54 55 54 53 52 52 52 52 53 54
21 21 21 21 21 21 21 21 21 21 21 21 21 20 19 19 19 20 20 21 22 23 24 24 25 26 27 28 28 29 30 30 31 32 32 34 35 36 37 37 38 39 39 40 40 41 41 42 43 43 44 45 45 46 47 48 48 49 50 50 50 50 49 50 50 50 50 51 52 54 55 55 55 56 56 56 57 56 55 54 53 53 53 53 54
23 23 23 23 23 23 22 22 22 22 22 23 23 22 22 22 22 22 23 23 24 25 25 26 27 28 29 30 30 31 32 33 34 34 35 36 37 38 39 40 40 40 41 41 41 42 43 44 45 45 46 47 48 48 48 48 49 49 51 52 53 53 53 54 54 53 52 52 53 54 56 56 57 57 57 57 58 57 56 55 55 54 54 54 54
24 25 25 25 25 24 23 23 23 23 24 24 24 24 24 24 25 24 25 25 26 27 28 28 29 30 31 32 32 33 34 35 36 37 37 38 39 40 41 42 42 42 42 42 43 44 45 46 46 47 48 48 49 49 49 50 50 50 52 53 54 56 56 57 57 58 57 55 53 54 56 57 56 57 57 58 58 57 57 57 57 56 56 56 55
25 26 27 27 26 26 25 25 25 25 25 26 26 27 27 27 27 27 27 28 29 30 30 31 32 33 33 34 35 35 36 37 38 39 40 41 41 42 43 43 43 44 44 44 45 46 46 47 48 48 48 49 49 50 50 51 52 52 53 54 56 57 59 60 61 61 61 59 56 54 55 57 56 56 56 57 57 57 56 56 57 57 57 57 56
26 27 27 28 28 28 27 27 27 27 28 29 29 29 30 30 30 30 30 31 32 32 33 33 34 35 36 36 37 38 39 40 41 42 42 43 43 44 44 45 45 45 45 46 46 47 48 48 49 49 49 49 50 51 52 52 53 54 55 56 57 59 60 62 63 63 63 62 59 55 55 56 56 55 56 56 56 56 55 55 56 56 57 56 55
27 28 28 29 29 30 30 29 29 29 30 31 31 31 32 32 32 33 33 33 34 35 36 36 37 37 38 39 40 40 41 42 43 44 45 45 45 45 45 46 46 46 47 47 48 48 48 49 49 49 50 50 51 52 52 53 55 56 58 59 60 61 62 63 63 63 63 63 61 58 55 55 55 54 54 55 55 54 54 55 55 55 55 55 55
27 28 29 30 31 31 32 32 32 31 32 32 32 33 33 34 35 35 36 36 37 38 38 39 39 40 41 41 42 43 44 45 45 46 46 47 47 47 47 47 47 47 47 48 48 49 49 49 50 51 51 52 52 53 54 55 57 58 59 61 63 63 64 63 62 63 63 62 62 60 56 56 55 51 51 51 51 51 52 54 54 54 54 53 54
Wind_Direction
38 206 190 183 179 179 180 181 178 176 175 164 155 149 148 138 126 133 139 129 121 119 117 121 117 110 105 102 91 76 56 45 30 11 3 2 7 7 5 0 356 351 347 342 339 336 334 332 330 327 326 326 328 329 328 328 329 331 333 335 337 340 342 344 346 348 351 353 355 355 353 352 351 350 349 348 346 345 345 345 344 344 345 344 343
34 45 175 174 171 169 170 173 174 176 171 157 150 148 149 143 126 131 138 126 116 113 114 120 117 111 110 108 96 77 52 19 13 16 15 18 16 9 1 354 348 344 340 335 332 330 329 328 326 327 328 330 332 333 334 337 339 342 346 349 353 354 355 356 357 358 359 360 359 357 354 353 353 351 350 348 346 345 345 345 345 345 345 345 343
67 73 104 132 144 152 156 161 164 163 156 147 146 152 152 142 129 131 131 119 111 110 111 117 117 118 117 112 92 60 36 29 19 17 16 12 3 354 346 340 337 335 333 330 329 329 329 331 332 335 338 342 344 348 351 354 356 358 0 1 2 2 2 2 2 2 2 2 1 358 355 353 353 351 349 347 345 345 345 345 346 345 344 343 342
79 82 94 109 122 131 136 142 146 145 142 142 145 148 146 135 127 126 122 113 106 104 108 116 118 114 104 82 55 45 33 27 15 9 0 353 344 338 334 333 336 338 340 341 343 346 349 353 356 358 359 1 2 4 5 5 6 5 6 5 5 5 5 5 4 3 2 2 0 357 353 351 351 351 348 346 346 345 346 346 346 345 343 341 341
86 89 95 102 111 116 120 127 133 138 139 139 138 138 137 131 125 121 117 109 106 108 111 113 111 96 77 61 46 34 14 4 354 349 344 342 343 346 351 356 4 10 12 12 13 13 13 14 14 14 13 11 11 11 10 9 9 8 8 7 6 6 6 6 4 3 2 1 358 354 352 351 351 351 348 347 347 347 347 346 346 345 343 341 340
89 93 98 104 109 112 115 118 122 131 136 136 134 134 136 131 124 120 117 108 108 110 102 95 87 75 58 39 13 359 355 359 1 3 7 12 21 28 31 31 33 33 32 28 25 23 21 20 19 19 17 16 15 13 12 10 9 8 7 6 6 6 7 6 4 3 2 360 356 351 351 351 350 350 348 347 348 347 347 347 347 345 342 341 339
94 97 101 106 109 109 111 113 113 120 130 134 132 134 138 133 129 132 127 108 101 94 79 69 57 45 31 19 13 21 30 38 43 48 49 48 48 47 44 41 39 37 36 33 30 27 25 24 22 21 19 18 15 13 10 9 8 7 5 5 5 6 6 4 1 0 359 357 352 349 350 351 350 349 348 349 349 348 347 346 346 343 341 339 337
99 101 104 106 107 108 112 116 115 117 125 132 132 130 130 124 123 130 125 100 87 78 66 55 47 46 45 47 51 55 56 56 56 55 54 51 48 46 44 42 41 38 36 35 31 29 27 24 22 20 18 16 13 10 8 7 7 5 4 3 2 2 2 360 357 356 355 353 351 349 350 353 352 350 350 350 350 349 348 346 344 342 340 338 336
102 105 108 109 110 112 117 119 119 119 121 126 128 124 119 114 112 112 102 86 76 72 69 67 67 68 68 68 66 64 61 59 57 54 53 50 48 45 43 40 38 36 34 31 28 25 23 20 18 15 14 12 10 8 6 6 4 2 0 358 357 357 357 356 355 354 354 353 353 352 352 356 355 353 352 351 352 350 348 345 344 343 341 338 336
100 103 105 107 110 113 115 114 113 112 113 115 116 113 108 104 101 96 87 80 77 77 76 74 74 73 71 69 66 64 61 58 55 53 51 48 47 43 39 36 32 30 28 26 23 21 18 17 15 12 11 10 8 6 4 3 1 358 355 354 354 355 356 357 356 355 355 356 355 354 355 358 356 354 353 352 352 350 347 346 345 344 342 339 337
96 98 99 101 103 104 105 104 103 102 104 105 104 101 98 96 95 91 87 84 82 80 78 76 73 71 68 65 63 59 56 54 52 50 47 44 41 39 36 32 29 27 25 23 21 19 17 14 13 11 9 7 5 2 1 359 356 354 353 354 355 356 357 357 357 356 356 356 356 355 355 357 356 352 351 351 351 349 346 345 344 343 341 340 339
97 97 97 98 98 99 99 99 99 99 100 100 99 98 96 95 93 91 88 85 82 79 77 74 71 69 67 64 61 59 56 55 53 50 46 41 37 35 33 31 29 26 25 22 20 18 15 13 11 9 7 4 2 0 359 357 356 355 356 356 357 358 358 358 357 356 356 356 356 355 354 355 354 350 350 350 349 348 345 343 343 342 340 338 338
96 96 96 97 97 97 97 97 97 98 98 97 96 95 95 93 91 89 87 84 81 78 76 73 71 70 69 67 65 62 60 58 55 51 47 43 38 36 34 34 31 28 27 25 23 20 18 16 14 12 9 7 5 3 3 1 1 360 360 359 359 360 358 358 357 355 354 355 354 353 353 353 352 349 348 349 348 346 343 341 340 339 337 336 335
95 95 96 96 96 95 94 94 94 94 94 93 93 92 92 91 90 89 87 84 81 78 74 71 69 68 66 65 64 62 59 56 54 50 48 46 42 39 37 37 36 33 31 28 26 24 22 20 18 16 13 10 9 7 6 4 3 2 1 360 360 0 358 357 356 354 353 353 353 352 351 350 350 348 347 346 345 342 340 338 337 335 334 333 332
95 96 96 96 96 95 94 93 92 92 92 91 90 89 88 87 86 84 81 77 74 70 65 60 57 57 57 57 58 57 53 50 47 45 44 42 40 38 36 35 34 32 29 28 25 23 20 18 15 13 10 8 6 4 4 3 1 360 359 358 357 358 356 354 354 352 351 350 350 350 348 347 346 345 343 342 340 338 336 335 334 333 332 331 331
99 99 99 99 98 97 95 93 91 89 88 88 86 84 81 78 77 75 72 69 65 62 58 52 47 47 47 48 50 51 46 41 38 36 37 34 30 30 30 28 26 24 23 21 19 16 13 10 8 5 3 2 0 359 359 358 357 356 355 354 354 353 352 351 350 349 348 348 346 346 345 343 341 340 339 338 336 335 333 333 332 331 330 329 329
100 101 101 100 99 97 95 92 90 88 86 85 83 80 77 75 73 71 69 67 63 59 55 49 42 39 40 40 42 44 40 32 27 26 29 25 21 21 21 20 17 15 14 13 11 9 6 3 0 359 357 356 355 355 354 353 352 352 351 351 350 349 349 348 347 345 345 345 343 341 341 339 338 337 336 335 334 333 332 331 330 329 328 327 326
102 100 99 98 97 96 94 93 91 89 87 85 83 80 78 76 74 71 68 65 60 55 49 42 35 31 32 32 35 37 34 26 18 18 20 17 14 13 13 13 10 9 8 7 5 2 360 357 355 354 352 351 351 350 350 349 349 348 348 348 347 346 345 345 344 342 342 343 341 339 339 338 337 336 336 335 334 333 331 330 329 328 327 325 324
103 101 98 96 94 93 92 90 89 87 85 83 81 79 77 75 72 67 63 59 54 48 41 35 29 25 26 28 29 30 28 21 14 13 14 11 9 9 8 7 6 5 4 2 0 357 355 353 351 350 348 348 347 348 348 348 347 346 346 345 345 344 343 343 342 341 340 341 340 338 338 337 337 336 335 335 334 332 331 330 329 328 327 326 325
100 99 97 95 92 90 88 86 84 82 80 79 77 75 73 70 66 62 57 52 47 42 36 31 26 22 22 24 26 25 23 19 15 12 12 10 7 7 5 4 3 1 360 358 356 354 351 350 349 348 347 347 347 347 347 347 346 345 344 343 343 342 342 342 341 339 338 339 339 337 337 337 336 335 335 334 334 332 332 331 330 329 328 327 326
96 95 94 92 90 88 86 84 81 79 77 74 72 69 67 65 62 57 52 46 41 37 33 30 26 22 20 22 24 23 20 17 15 13 12 11 8 8 5 4 2 1 358 356 355 353 351 349 348 348 348 348 348 348 348 347 346 344 343 342 343 343 343 341 340 338 337 338 338 337 337 336 336 335 335 335 334 334 333 332 331 330 329 328 326
96 94 91 90 88 86 85 84 81 77 73 70 67 64 61 60 57 53 48 43 38 34 31 28 26 23 20 20 23 23 19 16 15 13 12 11 9 8 7 4 2 0 358 355 355 353 351 349 349 349 350 350 349 349 348 347 346 345 344 344 344 344 343 341 340 338 338 338 339 338 338 337 337 337 336 336 335 335 334 333 332 331 329 328 326
99 97 94 92 90 88 86 83 80 75 70 66 61 58 55 53 50 48 43 40 36 32 29 27 25 24 20 19 22 24 22 18 17 16 14 12 10 7 4 2 359 356 354 353 352 350 349 348 348 349 349 349 348 348 348 348 347 347 346 346 346 345 344 342 341 340 339 340 340 340 339 339 339 339 338 338 338 337 336 334 333 331 329 328 326
108 104 100 96 94 91 86 81 76 70 65 60 55 50 47 45 43 41 37 35 34 31 28 26 23 22 21 19 20 23 24 22 21 21 19 17 14 10 5 2 359 357 355 354 353 352 351 350 351 351 351 351 350 350 350 350 350 349 348 347 347 346 345 344 342 342 342 342 342 342 341 341 342 341 341 340 341 340 338 336 334 333 331 329 328
116 112 107 102 96 89 84 75 68 61 55 49 45 40 37 35 34 31 29 28 28 27 24 22 21 20 20 19 18 19 21 21 20 21 21 20 18 15 12 9 7 6 4 3 1 0 359 358 357 356 354 353 352 352 351 352 352 351 351 350 349 348 347 346 345 343 343 343 343 343 342 342 342 342 341 341 341 340 338 337 335 334 332 331 329
123 116 109 102 94 86 78 68 57 49 40 33 27 25 23 21 22 20 18 18 18 19 18 17 16 16 17 16 15 15 16 17 16 16 17 16 15 14 13 11 10 9 7 6 5 3 1 360 358 357 356 355 354 354 354 354 354 353 353 351 350 349 348 346 345 343 341 341 341 341 340 340 339 338 338 337 337 336 336 335 334 333 333 332 331
133 123 109 94 84 74 64 55 42 31 22 15 11 9 8 8 10 9 7 8 8 9 10 11 11 10 12 13 14 14 14 15 14 13 11 10 9 10 9 8 7 5 5 3 3 2 1 360 359 358 358 356 356 355 354 354 353 352 350 349 347 346 344 342 341 340 338 338 337 337 336 335 334 334 333 333 333 333 333 333 333 333 332 332 332
145 137 122 93 63 45 33 25 17 10 4 359 358 356 356 357 358 357 356 358 359 359 0 3 5 6 8 11 14 14 14 14 14 13 10 9 8 8 8 8 7 6 5 5 4 3 1 0 358 358 356 354 353 351 350 349 348 347 345 344 343 341 340 338 337 336 335 334 333 333 332 331 330 330 330 330 329 329 331 331 332 332 332 331 331
165 160 155 142 52 16 359 355 349 347 346 345 346 345 345 345 346 345 344 347 350 350 351 355 357 360 3 6 10 12 14 14 13 13 12 11 10 10 11 10 10 8 6 4 2 360 357 354 352 350 349 347 345 344 343 342 342 341 341 340 338 338 337 335 334 333 332 331 331 329 328 328 327 328 328 328 327 326 328 328 329 329 329 329 329
194 200 206 232 280 305 316 324 325 328 328 331 333 335 335 334 335 333 333 337 341 343 344 347 350 353 357 360 3 7 10 12 13 13 13 13 12 11 9 7 5 2 359 356 353 350 347 345 343 342 341 340 338 338 337 337 337 337 336 336 335 334 333 332 331 330 329 329 329 328 327 327 327 327 326 325 324 324 325 325 325 325 326 326 327
226 238 251 268 285 293 300 305 309 313 316 320 323 324 326 325 324 324 325 328 332 335 338 342 345 349 352 353 356 359 2 5 7 7 7 7 5 2 359 356 353 350 347 345 342 341 339 338 337 336 335 334 334 333 333 333 333 333 333 333 332 331 330 329 328 327 326 326 327 326 326 326 326 326 324 323 322 323 323 323 322 322 323 323 324
243 252 265 275 286 293 297 301 302 303 306 309 314 315 316 316 315 314 316 320 322 327 332 337 340 343 346 347 349 351 351 352 352 353 352 351 349 347 345 343 340 339 337 336 334 333 333 332 331 331 331 330 330 330 330 330 330 330 329 330 329 329 328 327 327 326 325 325 325 325 324 325 325 325 323 322 322 322 323 322 321 321 321 321 322
252 257 268 276 283 289 293 297 298 298 299 301 304 305 306 306 306 305 306 309 312 318 324 328 332 334 335 337 339 340 341 340 340 338 337 336 336 335 334 333 332 331 330 330 329 329 328 328 327 327 326 326 326 326 326 326 327 327 327 328 328 328 327 326 326 325 324 324 323 323 324 325 325 324 323 322 322 322 322 321 320 320 320 320 320
258 263 271 275 279 283 288 291 292 293 295 295 296 296 296 296 297 298 298 302 305 310 315 318 321 322 323 324 326 329 330 331 330 329 329 328 328 328 328 328 328 328 327 327 327 327 326 325 325 324 324 323 323 323 323 324 324 324 325 326 327 327 327 327 327 326 324 323 322 322 323 324 323 322 322 321 320 321 320 319 319 318 318 318 318
260 266 270 272 275 279 283 286 287 289 291 293 294 291 289 288 287 288 291 296 301 306 308 310 310 310 311 312 315 317 320 321 322 323 323 324 325 326 326 326 326 326 326 326 325 326 325 325 325 324 324 323 322 322 323 323 323 323 323 324 326 326 325 325 326 325 324 322 321 320 321 321 320 320 319 318 318 318 318 317 317 317 317 316 316
261 264 266 268 272 275 277 280 282 285 287 290 291 289 286 284 281 279 280 286 293 300 303 303 304 304 304 306 307 311 314 316 318 319 320 322 323 325 325 325 325 325 325 324 324 325 325 324 324 323 323 323 322 322 322 323 323 322 323 324 325 325 323 323 324 323 322 321 319 319 319 318 318 317 316 316 316 316 315 315 315 315 315 315 315
259 259 261 266 269 271 273 276 279 281 284 287 286 285 283 281 279 276 276 277 281 287 290 292 294 298 300 303 305 309 312 313 315 316 317 318 320 322 322 323 323 323 323 323 323 323 323 323 322 322 321 321 321 321 321 322 321 321 322 323 323 323 322 321 322 321 320 319 318 317 316 315 315 315 314 314 314 314 313 313 314 314 314 313 313
255 255 260 266 269 270 272 275 277 278 280 282 282 281 281 280 278 277 276 276 278 281 282 283 286 290 294 299 302 305 309 311 312 313 314 315 317 318 319 320 320 320 321 320 320 320 320 320 319 319 319 319 319 319 319 319 320 320 320 321 321 321 320 319 319 318 318 318 317 316 315 315 315 315 314 313 313 313 312 312 313 313 313 312 312
253 254 258 265 268 269 272 275 276 277 277 277 277 278 280 281 281 279 276 276 278 279 280 283 286 289 292 296 300 304 306 308 308 310 311 313 314 315 315 316 317 317 317 317 317 316 316 316 316 317 317 318 318 317 317 317 318 318 319 319 319 319 318 318 317 317 317 317 316 315 314 314 314 313 313 313 313 312 311 312 313 312 312 311 311
254 256 258 262 264 267 271 273 273 274 273 272 272 276 279 281 281 281 280 280 280 279 280 284 287 290 293 296 300 303 305 307 308 309 309 310 312 313 313 313 314 314 314 314 314 314 314 313 314 315 316 317 317 316 315 316 317 317 317 317 317 317 316 316 316 315 316 316 315 314 313 312 312 312 312 312 312 311 311 312 312 312 311 310 310
257 259 258 260 263 265 268 268 268 268 268 270 272 275 278 280 282 283 284 284 284 283 285 287 290 292 294 296 299 301 303 305 307 307 307 308 308 309 309 310 311 311 311 312 312 312 312 312 313 314 315 316 316 316 315 315 315 315 314 315 316 315 315 315 315 315 315 314 314 313 312 312 311 311 311 311 311 310 310 311 311 310 309 308 308
260 262 261 262 264 265 264 265 266 266 267 270 272 274 277 280 283 285 286 286 287 288 290 291 293 295 296 298 300 300 301 301 302 302 303 304 304 305 306 307 308 309 310 309 309 310 310 311 313 313 314 315 315 314 314 314 313 312 312 314 314 314 314 314 314 314 314 313 313 312 311 310 310 310 311 311 310 309 309 309 309 308 307 307 307
261 263 263 264 265 265 265 266 268 269 270 270 270 271 275 278 281 283 285 286 287 289 290 292 293 295 297 298 300 300 299 299 299 301 302 304 304 305 306 307 308 309 310 310 310 310 311 311 312 312 311 311 311 311 311 311 311 311 311 313 313 313 314 313 313 313 313 313 312 311 311 310 310 310 311 310 309 308 309 309 308 307 306 307 307
261 262 264 265 265 265 267 270 271 271 271 271 269 269 272 275 277 278 280 281 283 284 286 289 291 293 295 296 297 297 297 297 298 301 302 303 304 304 305 307 308 309 309 309 309 309 309 309 308 308 308 308 308 308 309 310 310 310 311 312 311 312 312 311 311 311 311 311 311 310 309 309 310 310 310 309 308 308 308 308 307 307 306 307 308
262 263 264 265 265 266 268 270 270 269 269 269 269 269 269 270 272 273 274 275 278 280 283 285 287 288 290 291 292 293 294 296 297 299 300 300 301 302 303 305 306 307 307 307 307 306 306 306 306 306 307 307 307 308 309 309 310 310 310 310 310 311 311 310 310 310 310 310 310 309 308 308 309 309 309 308 307 308 308 308 307 307 307 307 307
263 265 266 266 265 266 267 268 268 268 268 268 268 269 267 267 269 270 272 274 276 278 280 281 282 284 285 287 289 291 293 295 296 296 297 298 299 301 302 303 304 304 304 304 304 304 304 305 305 306 306 307 307 308 309 308 309 310 309 309 310 310 311 310 310 310 310 310 309 307 307 307 307 308 307 307 306 307 308 308 308 307 307 308 308
262 264 265 266 266 267 268 268 268 268 268 267 267 267 267 266 267 269 271 274 276 277 278 279 280 281 284 286 288 290 292 293 293 294 295 296 297 299 300 301 302 302 301 302 302 302 303 304 304 305 305 306 306 307 308 308 308 309 309 309 309 309 309 310 310 309 309 309 307 306 306 305 305 306 305 305 306 307 308 308 308 308 309 309 309
262 262 264 266 267 268 269 269 269 269 268 268 266 266 267 268 268 269 270 272 274 275 277 278 280 282 284 286 287 289 290 291 292 293 294 295 296 297 298 299 299 299 300 300 301 301 302 302 303 303 304 305 306 306 307 307 308 308 308 308 308 308 308 308 308 308 307 308 307 306 304 304 304 304 304 304 305 306 307 307 308 308 309 309 310
263 264 265 266 268 269 270 270 270 269 268 268 267 267 268 269 269 270 271 272 273 275 277 278 280 282 283 285 286 287 288 289 290 291 293 293 294 295 296 297 297 298 298 299 299 300 301 301 302 303 304 305 305 306 306 307 307 307 307 307 308 308 308 307 306 306 305 306 307 306 303 302 303 303 303 305 305 305 306 306 307 308 309 309 310
265 265 265 266 268 269 270 270 269 269 267 268 269 269 269 269 270 271 273 274 275 276 278 279 281 282 283 284 285 286 287 288 289 290 291 292 293 293 294 295 296 296 297 297 298 299 300 301 302 303 303 304 304 304 305 305 306 306 307 307 308 308 307 306 305 304 304 304 306 306 304 302 302 304 304 304 305 305 306 306 307 308 308 309 309
265 265 265 265 266 267 268 268 268 268 268 269 269 270 270 271 272 273 274 275 276 277 279 280 280 281 282 283 284 285 286 287 288 289 290 291 292 292 293 294 295 295 296 297 298 299 299 300 301 302 302 303 303 304 305 305 305 306 307 307 307 307 306 304 303 302 302 302 303 304 304 302 303 306 304 303 304 304 305 306 307 308 308 308 308
Height
5872 5872 5873 5873 5874 5875 5876 5877 5878 5879 5880 5880 5881 5882 5883 5883 5884 5884 5885 5885 5886 5886 5886 5887 5887 5888 5888 5888 5888 5889 5889 5889 5889 5889 5890 5890 5890 5889 5889 5889 5889 5889 5889 5889 5889 5888 5888 5888 5887 5887 5887 5886 5886 5885 5885 5885 5884 5883 5883 5882 5881 5881 5881 5880 5880 5879 5879 5878 5878 5877 5877 5876 5876 5875 5875 5874 5873 5873 5872 5872 5871 5870 5870 5869 5868
5871 5871 5871 5873 5874 5875 5876 5877 5878 5879 5880 5881 5881 5882 5883 5884 5884 5885 5885 5886 5886 5886 5887 5887 5887 5888 5888 5888 5889 5889 5889 5889 5889 5889 5889 5890 5889 5889 5889 5889 5889 5889 5889 5889 5889 5888 5888 5887 5887 5887 5886 5886 5885 5885 5884 5884 5883 5883 5882 5882 5881 5881 5881 5880 5880 5879 5879 5878 5878 5877 5877 5876 5876 5875 5874 5874 5873 5873 5872 5872 5871 5870 5870 5869 5868
5871 5871 5871 5872 5874 5875 5876 5878 5879 5880 5880 5881 5882 5883 5884 5884 5885 5886 5886 5886 5887 5887 5887 5888 5888 5888 5889 5889 5889 5889 5889 5889 5890 5890 5890 5890 5890 5889 5889 5889 5889 5889 5889 5889 5889 5888 5888 5887 5887 5887 5886 5885 5885 5885 5884 5884 5883 5883 5882 5882 5882 5881 5881 5881 5880 5879 5879 5879 5878 5877 5877 5876 5876 5875 5875 5874 5873 5873 5872 5871 5871 5870 5869 5868 5868
5871 5871 5872 5873 5875 5876 5878 5879 5880 5881 5881 5882 5883 5883 5884 5885 5886 5886 5887 5887 5887 5888 5888 5888 5888 5888 5889 5889 5890 5890 5890 5890 5890 5890 5890 5890 5890 5890 5890 5889 5889 5889 5889 5889 5888 5888 5888 5887 5887 5887 5886 5886 5885 5885 5884 5884 5884 5883 5883 5883 5882 5882 5881 5881 5880 5879 5879 5879 5878 5877 5877 5876 5876 5875 5875 5874 5873 5872 5872 5871 5870 5870 5869 5868 5867
5873 5873 5873 5875 5876 5878 5879 5880 5881 5881 5882 5883 5884 5884 5885 5886 5886 5887 5887 5888 5888 5888 5888 5889 5889 5889 5889 5890 5890 5890 5890 5890 5890 5890 5890 5890 5890 5890 5890 5889 5889 5889 5889 5888 5888 5888 5887 5887 5887 5887 5886 5886 5886 5885 5885 5884 5884 5884 5883 5883 5882 5882 5881 5881 5880 5880 5879 5879 5878 5877 5877 5876 5876 5875 5874 5874 5873 5872 5871 5871 5870 5869 5868 5867 5867
5874 5874 5875 5876 5878 5879 5880 5881 5881 5882 5883 5884 5884 5885 5886 5886 5887 5888 5888 5889 5889 5889 5889 5889 5889 5890 5890 5890 5891 5891 5891 5891 5891 5891 5891 5890 5890 5890 5890 5889 5889 5889 5889 5889 5888 5888 5888 5887 5887 5887 5887 5886 5886 5885 5885 5885 5884 5884 5883 5883 5882 5882 5881 5881 5880 5880 5879 5879 5878 5877 5877 5876 5875 5875 5874 5873 5872 5872 5871 5870 5869 5869 5868 5867 5866
5875 5876 5877 5878 5879 5880 5881 5882 5882 5883 5884 5884 5885 5886 5887 5887 5888 5888 5889 5889 5889 5889 5890 5890 5890 5890 5891 5891 5891 5891 5891 5891 5891 5891 5891 5891 5890 5890 5890 5890 5889 5889 5889 5889 5889 5888 5888 5888 5887 5887 5887 5887 5886 5886 5885 5885 5884 5884 5883 5882 5882 5882 5881 5881 5880 5880 5879 5878 5878 5877 5876 5876 5875 5874 5873 5872 5872 5871 5870 5869 5869 5868 5867 5866 5865
5877 5878 5879 5879 5880 5881 5882 5883 5883 5884 5885 5885 5886 5886 5887 5887 5888 5889 5889 5890 5890 5890 5890 5890 5891 5891 5891 5891 5891 5891 5891 5891 5891 5891 5891 5891 5890 5890 5890 5890 5890 5890 5889 5889 5889 5888 5888 5888 5888 5887 5887 5887 5886 5886 5885 5885 5884 5884 5883 5882 5882 5882 5881 5881 5880 5879 5879 5878 5877 5876 5876 5875 5874 5873 5872 5871 5871 5870 5869 5868 5868 5867 5866 5865 5864
5878 5879 5880 5881 5881 5882 5883 5884 5884 5885 5885 5886 5886 5887 5887 5888 5888 5889 5890 5890 5890 5890 5891 5891 5891 5891 5892 5892 5892 5892 5892 5892 5891 5891 5891 5891 5891 5891 5890 5890 5890 5890 5889 5889 5889 5889 5888 5888 5888 5887 5887 5887 5886 5886 5885 5885 5884 5884 5883 5883 5882 5882 5881 5881 5880 5879 5878 5878 5877 5876 5875 5874 5873 5872 5871 5871 5870 5869 5868 5868 5867 5866 5866 5865 5864
5879 5880 5881 5882 5882 5883 5884 5885 5885 5886 5886 5887 5887 5888 5888 5889 5889 5890 5890 5891 5891 5891 5892 5892 5892 5892 5893 5893 5892 5892 5892 5892 5892 5892 5892 5892 5891 5891 5891 5891 5890 5890 5890 5890 5889 5889 5889 5888 5888 5887 5887 5887 5886 5886 5885 5885 5885 5884 5883 5883 5882 5882 5881 5880 5879 5879 5878 5877 5876 5875 5874 5874 5873 5872 5871 5870 5870 5869 5868 5867 5866 5866 5865 5864 5863
5881 5882 5883 5883 5884 5885 5885 5886 5886 5887 5887 5888 5889 5889 5890 5890 5890 5891 5891 5892 5892 5892 5893 5893 5893 5893 5893 5893 5893 5893 5893 5893 5893 5893 5892 5892 5892 5892 5892 5891 5891 5890 5890 5890 5890 5889 5889 5889 5888 5888 5887 5887 5887 5886 5886 5885 5885 5884 5883 5883 5882 5882 5881 5880 5879 5878 5877 5876 5876 5875 5874 5874 5873 5872 5871 5870 5870 5869 5868 5867 5866 5865 5864 5863 5862
5883 5883 5884 5885 5885 5886 5887 5887 5888 5888 5889 5889 5890 5891 5891 5891 5892 5892 5893 5893 5893 5893 5894 5894 5894 5894 5894 5894 5894 5894 5894 5894 5894 5893 5893 5893 5893 5892 5892 5892 5891 5891 5891 5890 5890 5890 5889 5889 5888 5888 5888 5887 5887 5886 5886 5885 5885 5884 5883 5883 5882 5881 5880 5880 5879 5878 5877 5876 5875 5874 5874 5873 5872 5871 5871 5870 5869 5868 5867 5866 5865 5864 5863 5862 5862
5884 5885 5885 5886 5887 5887 5888 5888 5889 5890 5890 5891 5891 5892 5892 5893 5893 5893 5893 5894 5894 5894 5894 5894 5895 5895 5895 5895 5895 5895 5895 5894 5894 5894 5894 5893 5893 5893 5892 5892 5892 5891 5891 5891 5890 5890 5889 5889 5889 5888 5888 5887 5887 5886 5886 5885 5885 5884 5883 5882 5882 5881 5880 5879 5878 5877 5876 5876 5875 5874 5873 5873 5872 5871 5870 5869 5868 5867 5866 5865 5865 5864 5863 5862 5861
5886 5886 5887 5888 5888 5889 5890 5890 5891 5891 5892 5892 5892 5893 5893 5893 5894 5894 5894 5895 5895 5895 5895 5895 5895 5896 5896 5896 5896 5895 5895 5895 5894 5894 5894 5894 5893 5893 5892 5892 5892 5892 5891 5891 5890 5890 5889 5889 5889 5888 5888 5887 5887 5886 5886 5885 5884 5883 5883 5882 5881 5880 5879 5878 5878 5877 5876 5875 5875 5874 5873 5872 5871 5870 5869 5869 5868 5867 5866 5865 5864 5863 5862 5861 5860
5887 5888 5889 5889 5890 5890 5891 5892 5892 5893 5893 5893 5893 5894 5894 5894 5894 5895 5895 5896 5896 5896 5896 5896 5896 5896 5896 5896 5896 5896 5895 5895 5895 5894 5894 5894 5894 5893 5893 5892 5892 5892 5891 5891 5891 5890 5890 5889 5889 5888 5888 5887 5887 5886 5885 5885 5884 5883 5882 5881 5880 5880 5879 5878 5877 5876 5876 5875 5874 5873 5872 5871 5870 5870 5869 5868 5867 5866 5865 5864 5863 5862 5861 5860 5859
5889 5890 5890 5891 5891 5892 5893 5893 5893 5894 5894 5894 5894 5895 5895 5895 5895 5896 5896 5896 5896 5896 5896 5896 5896 5897 5897 5896 5896 5896 5896 5895 5895 5895 5895 5894 5894 5894 5893 5893 5892 5892 5892 5891 5891 5890 5890 5889 5889 5888 5888 5887 5887 5886 5885 5884 5883 5883 5882 5881 5880 5879 5879 5878 5877 5876 5875 5874 5873 5872 5872 5871 5870 5869 5868 5867 5866 5865 5864 5863 5862 5861 5860 5859 5858
5891 5892 5892 5892 5893 5893 5894 5894 5894 5895 5895 5895 5895 5896 5896 5896 5897 5897 5897 5897 5897 5897 5897 5897 5897 5897 5897 5897 5896 5896 5896 5895 5895 5895 5895 5894 5894 5894 5893 5893 5892 5892 5892 5891 5891 5890 5890 5889 5889 5888 5888 5887 5887 5886 5885 5884 5883 5883 5882 5881 5880 5879 5878 5877 5877 5875 5875 5874 5873 5872 5871 5870 5869 5868 5867 5866 5865 5864 5863 5862 5861 5860 5859 5858 5857
5892 5893 5893 5894 5894 5894 5895 5895 5895 5896 5896 5896 5896 5896 5897 5897 5898 5898 5898 5898 5898 5897 5897 5897 5897 5896 5896 5896 5896 5896 5896 5895 5895 5895 5895 5894 5894 5894 5893 5893 5892 5892 5891 5891 5891 5890 5890 5889 5889 5888 5888 5887 5887 5886 5885 5884 5883 5882 5882 5881 5880 5879 5878 5877 5876 5875 5875 5874 5873 5871 5870 5870 5869 5867 5866 5865 5864 5863 5862 5861 5860 5859 5858 5856 5855
5893 5894 5894 5895 5895 5895 5896 5896 5896 5897 5897 5897 5897 5897 5898 5898 5898 5898 5898 5898 5898 5897 5897 5897 5896 5896 5896 5896 5896 5896 5896 5895 5895 5895 5895 5894 5894 5894 5893 5893 5892 5892 5891 5891 5891 5890 5890 5889 5889 5888 5888 5887 5887 5886 5885 5884 5883 5882 5882 5881 5880 5879 5878 5877 5876 5875 5874 5873 5872 5871 5870 5869 5868 5866 5865 5865 5864 5862 5861 5860 5859 5858 5857 5855 5854
5894 5895 5895 5895 5896 5896 5897 5897 5897 5898 5898 5898 5898 5898 5898 5898 5899 5899 5898 5898 5898 5897 5897 5897 5896 5896 5896 5896 5896 5896 5895 5895 5895 5895 5895 5894 5894 5894 5893 5893 5892 5892 5891 5891 5891 5890 5890 5889 5889 5888 5888 5887 5886 5886 5885 5884 5883 5882 5881 5881 5880 5879 5878 5877 5876 5874 5873 5873 5872 5870 5869 5868 5867 5866 5865 5864 5863 5862 5860 5859 5858 5857 5855 5854 5853
5895 5895 5896 5896 5897 5897 5897 5898 5898 5899 5899 5899 5899 5899 5899 5899 5899 5899 5899 5898 5898 5898 5897 5897 5896 5896 5896 5896 5896 5896 5896 5895 5895 5895 5895 5894 5894 5894 5893 5893 5892 5892 5892 5891 5891 5890 5890 5889 5889 5888 5888 5887 5886 5886 5885 5884 5883 5882 5881 5880 5879 5878 5877 5876 5875 5874 5872 5872 5871 5870 5868 5867 5866 5865 5864 5863 5862 5860 5859 5858 5856 5855 5854 5852 5851
5896 5896 5897 5897 5897 5898 5898 5899 5899 5899 5899 5899 5900 5900 5899 5899 5899 5899 5899 5899 5898 5898 5897 5897 5897 5896 5896 5896 5896 5896 5896 5895 5895 5895 5895 5894 5894 5894 5893 5893 5892 5892 5892 5891 5891 5890 5890 5889 5889 5888 5888 5887 5886 5885 5885 5884 5883 5882 5881 5880 5879 5878 5877 5876 5874 5873 5872 5871 5870 5869 5868 5866 5865 5864 5863 5861 5860 5859 5858 5856 5855 5853 5852 5850 5849
5897 5897 5897 5898 5898 5898 5899 5899 5899 5900 5900 5900 5900 5900 5900 5900 5900 5900 5899 5899 5899 5898 5898 5897 5897 5896 5896 5896 5896 5896 5896 5895 5895 5895 5894 5894 5894 5893 5893 5893 5892 5892 5892 5891 5891 5890 5890 5889 5889 5888 5887 5887 5886 5885 5884 5884 5883 5882 5880 5879 5878 5877 5876 5875 5874 5873 5871 5870 5869 5868 5867 5865 5864 5863 5862 5860 5859 5858 5856 5855 5853 5852 5850 5849 5847
5897 5897 5898 5898 5898 5899 5899 5900 5900 5900 5900 5900 5901 5901 5901 5900 5900 5900 5900 5899 5899 5899 5898 5898 5897 5897 5896 5896 5896 5896 5896 5895 5895 5895 5894 5894 5894 5893 5893 5893 5892 5892 5892 5891 5891 5890 5890 5889 5888 5888 5887 5886 5886 5885 5884 5883 5882 5881 5880 5879 5878 5877 5876 5875 5873 5872 5871 5870 5869 5867 5866 5865 5863 5862 5860 5859 5858 5857 5855 5853 5852 5850 5849 5847 5846
5897 5898 5898 5899 5899 5899 5900 5900 5900 5901 5901 5901 5901 5901 5901 5901 5901 5900 5900 5900 5900 5899 5899 5898 5898 5897 5897 5896 5896 5896 5896 5895 5895 5895 5894 5894 5894 5893 5893 5893 5892 5892 5891 5891 5890 5890 5889 5889 5888 5888 5887 5886 5885 5884 5884 5883 5882 5881 5880 5879 5878 5877 5875 5874 5873 5871 5870 5869 5868 5866 5865 5864 5862 5861 5859 5858 5857 5855 5854 5852 5850 5848 5847 5845 5843
5898 5898 5899 5899 5900 5900 5900 5901 5901 5901 5901 5901 5901 5901 5901 5901 5901 5901 5900 5900 5900 5899 5899 5898 5898 5897 5897 5897 5896 5896 5896 5895 5895 5895 5894 5894 5894 5893 5893 5893 5892 5892 5891 5891 5890 5890 5889 5889 5888 5888 5887 5886 5885 5884 5883 5883 5882 5881 5880 5878 5877 5876 5875 5874 5873 5871 5870 5869 5867 5866 5864 5863 5861 5860 5858 5857 5855 5854 5852 5850 5848 5846 5845 5843 5841
5898 5898 5899 5900 5900 5901 5901 5901 5901 5901 5901 5901 5901 5901 5901 5901 5901 5901 5900 5900 5900 5900 5899 5899 5898 5898 5897 5897 5897 5896 5896 5896 5895 5895 5894 5894 5894 5894 5893 5893 5893 5892 5892 5891 5891 5890 5890 5889 5888 5888 5887 5886 5885 5884 5883 5882 5881 5880 5879 5878 5877 5876 5875 5873 5872 5871 5869 5868 5866 5865 5863 5862 5860 5859 5857 5855 5853 5852 5850 5848 5846 5844 5842 5840 5839
5898 5898 5899 5900 5900 5900 5901 5901 5901 5901 5901 5901 5901 5901 5901 5901 5901 5901 5901 5900 5900 5900 5899 5899 5899 5898 5898 5897 5897 5896 5896 5896 5895 5895 5895 5894 5894 5894 5894 5893 5893 5892 5892 5892 5891 5890 5890 5889 5888 5888 5887 5886 5885 5884 5883 5882 5881 5880 5879 5878 5876 5875 5874 5872 5871 5870 5868 5867 5865 5864 5862 5861 5859 5857 5855 5854 5852 5850 5848 5846 5844 5842 5840 5838 5836
5898 5898 5899 5899 5900 5900 5900 5901 5901 5901 5901 5901 5901 5901 5901 5901 5901 5901 5901 5901 5900 5900 5900 5899 5899 5898 5898 5898 5897 5897 5896 5896 5896 5895 5895 5895 5894 5894 5894 5893 5893 5893 5892 5892 5891 5890 5890 5889 5888 5887 5886 5885 5884 5883 5882 5881 5880 5879 5878 5876 5875 5874 5872 5871 5869 5868 5867 5865 5863 5862 5861 5859 5858 5856 5854 5852 5850 5848 5846 5844 5842 5840 5838 5836 5834
5898 5898 5899 5899 5900 5900 5900 5900 5900 5900 5900 5900 5901 5901 5901 5901 5901 5901 5901 5901 5900 5900 5900 5899 5899 5899 5898 5898 5898 5897 5897 5896 5896 5896 5895 5895 5895 5894 5894 5894 5893 5893 5892 5892 5891 5890 5889 5889 5888 5887 5886 5885 5884 5882 5881 5880 5879 5878 5877 5875 5874 5873 5871 5869 5868 5866 5865 5863 5862 5860 5858 5857 5856 5854 5852 5850 5848 5846 5844 5842 5840 5837 5835 5833 5831
5898 5898 5899 5899 5900 5900 5900 5900 5900 5900 5900 5900 5900 5900 5900 5900 5900 5900 5900 5900 5900 5900 5899 5899 5899 5899 5898 5898 5898 5897 5897 5897 5896 5896 5896 5895 5895 5894 5894 5893 5893 5892 5892 5891 5890 5890 5889 5888 5887 5886 5885 5884 5883 5882 5880 5879 5878 5877 5876 5874 5873 5871 5870 5868 5866 5865 5863 5862 5860 5859 5856 5855 5853 5852 5850 5848 5846 5844 5842 5839 5837 5835 5833 5830 5828
5897 5898 5898 5899 5899 5899 5900 5900 5900 5900 5899 5899 5900 5900 5900 5900 5900 5900 5900 5900 5900 5899 5899 5899 5899 5898 5898 5898 5898 5898 5897 5897 5897 5896 5896 5895 5895 5894 5894 5893 5892 5891 5891 5890 5889 5889 5888 5887 5886 5885 5884 5883 5882 5880 5879 5878 5877 5876 5874 5873 5872 5870 5869 5867 5865 5863 5861 5860 5858 5857 5855 5852 5850 5849 5847 5845 5843 5841 5839 5836 5834 5832 5829 5827 5825
5897 5897 5898 5898 5899 5899 5899 5899 5899 5899 5899 5899 5899 5899 5899 5899 5899 5899 5899 5899 5899 5899 5899 5899 5898 5898 5898 5898 5898 5897 5897 5897 5896 5896 5895 5895 5894 5894 5893 5892 5891 5891 5890 5889 5888 5887 5887 5886 5885 5884 5882 5881 5880 5879 5878 5877 5876 5874 5873 5872 5870 5869 5867 5865 5863 5861 5860 5858 5856 5854 5853 5850 5848 5845 5843 5841 5839 5837 5835 5833 5830 5828 5825 5823 5821
5896 5897 5897 5898 5898 5898 5898 5899 5899 5899 5899 5899 5899 5899 5899 5899 5899 5899 5899 5899 5899 5898 5898 5898 5898 5898 5898 5897 5897 5897 5897 5896 5896 5895 5895 5894 5893 5893 5892 5891 5891 5890 5889 5888 5887 5886 5885 5884 5883 5882 5881 5880 5879 5877 5876 5875 5874 5873 5871 5870 5868 5867 5865 5863 5861 5859 5857 5855 5853 5851 5850 5848 5846 5843 5840 5838 5835 5833 5831 5829 5826 5824 5822 5820 5817
5896 5896 5897 5897 5897 5897 5897 5898 5898 5898 5898 5898 5898 5898 5898 5898 5898 5898 5898 5898 5898 5898 5898 5898 5898 5897 5897 5897 5896 5896 5896 5895 5895 5894 5894 5893 5892 5892 5891 5890 5890 5888 5887 5886 5885 5884 5883 5882 5881 5880 5879 5878 5877 5876 5874 5873 5872 5871 5869 5868 5866 5864 5862 5860 5859 5857 5854 5852 5850 5848 5847 5844 5842 5840 5838 5835 5832 5830 5827 5825 5822 5820 5818 5815 5813
5895 5896 5896 5896 5896 5896 5896 5897 5897 5897 5897 5897 5897 5897 5897 5897 5897 5897 5897 5897 5897 5897 5897 5897 5897 5896 5896 5896 5896 5895 5895 5895 5894 5893 5893 5892 5891 5891 5890 5889 5888 5887 5886 5885 5884 5883 5882 5880 5879 5878 5877 5876 5874 5873 5872 5871 5870 5868 5866 5865 5864 5862 5860 5858 5856 5854 5851 5849 5847 5845 5844 5841 5839 5837 5835 5833 5830 5827 5824 5821 5818 5816 5814 5811 5809
5894 5894 5894 5895 5895 5895 5895 5895 5896 5896 5896 5896 5896 5896 5896 5896 5896 5896 5897 5897 5897 5897 5896 5896 5896 5895 5895 5895 5895 5895 5894 5894 5893 5892 5891 5891 5890 5889 5889 5888 5887 5886 5885 5883 5882 5881 5880 5879 5877 5876 5875 5874 5872 5871 5869 5868 5867 5865 5864 5862 5861 5859 5857 5854 5852 5850 5848 5847 5844 5842 5840 5838 5836 5834 5831 5829 5827 5825 5821 5818 5815 5812 5810 5807 5804
5892 5893 5893 5894 5894 5894 5894 5894 5894 5894 5895 5895 5895 5895 5895 5895 5895 5895 5896 5896 5896 5896 5895 5895 5895 5895 5894 5894 5894 5894 5893 5893 5892 5891 5890 5889 5889 5888 5887 5886 5885 5884 5883 5882 5880 5879 5878 5877 5875 5874 5873 5871 5870 5869 5867 5866 5864 5863 5861 5859 5857 5855 5853 5851 5849 5847 5845 5843 5841 5838 5836 5833 5831 5829 5827 5825 5823 5821 5818 5815 5812 5809 5806 5803 5800
5891 5891 5892 5892 5892 5892 5892 5893 5893 5893 5893 5893 5893 5893 5894 5894 5894 5894 5895 5895 5895 5895 5894 5894 5894 5894 5893 5893 5893 5892 5892 5892 5891 5890 5889 5888 5887 5886 5885 5884 5884 5882 5881 5880 5878 5877 5875 5874 5873 5872 5870 5869 5867 5866 5864 5863 5861 5859 5857 5856 5854 5852 5850 5848 5846 5843 5841 5839 5837 5834 5832 5830 5827 5825 5822 5820 5818 5816 5813 5811 5809 5806 5802 5799 5796
5889 5890 5890 5890 5891 5891 5891 5891 5891 5891 5891 5892 5892 5892 5892 5892 5893 5893 5893 5893 5893 5893 5893 5893 5892 5892 5892 5892 5891 5891 5891 5890 5889 5889 5888 5886 5885 5884 5883 5882 5881 5880 5879 5878 5876 5875 5873 5871 5870 5869 5868 5866 5865 5862 5860 5859 5858 5856 5854 5853 5851 5848 5846 5844 5842 5839 5837 5835 5833 5831 5828 5826 5824 5821 5819 5816 5814 5811 5808 5806 5803 5801 5798 5795 5792
5887 5888 5888 5888 5889 5889 5889 5889 5890 5890 5890 5890 5890 5890 5890 5891 5891 5891 5891 5891 5891 5891 5891 5891 5890 5890 5890 5890 5890 5889 5889 5888 5887 5886 5885 5885 5884 5883 5881 5880 5879 5878 5877 5875 5874 5872 5871 5869 5867 5866 5864 5863 5861 5859 5856 5855 5853 5852 5850 5849 5848 5844 5842 5840 5838 5836 5834 5831 5829 5826 5824 5821 5819 5817 5815 5812 5809 5806 5804 5801 5799 5796 5794 5791 5788
5886 5886 5886 5887 5887 5887 5887 5887 5888 5888 5888 5888 5888 5888 5889 5889 5889 5889 5889 5889 5889 5889 5889 5888 5888 5888 5887 5887 5887 5887 5886 5886 5885 5884 5883 5882 5881 5880 5879 5878 5877 5876 5874 5873 5871 5870 5868 5866 5864 5862 5860 5859 5857 5855 5853 5851 5849 5848 5846 5846 5844 5841 5839 5836 5833 5832 5830 5827 5825 5822 5819 5817 5815 5812 5810 5808 5805 5802 5800 5797 5794 5791 5789 5786 5784
5884 5884 5885 5885 5885 5885 5885 5886 5886 5886 5886 5887 5887 5887 5887 5887 5887 5887 5887 5887 5887 5886 5886 5886 5885 5885 5885 5885 5884 5884 5883 5883 5882 5881 5880 5879 5878 5877 5876 5875 5874 5873 5871 5869 5868 5866 5864 5862 5860 5859 5857 5856 5854 5852 5850 5848 5845 5843 5842 5841 5840 5838 5836 5833 5829 5827 5825 5822 5820 5817 5815 5812 5810 5807 5805 5803 5799 5797 5795 5793 5789 5786 5784 5781 5779
5882 5882 5883 5883 5883 5883 5884 5884 5884 5884 5884 5885 5885 5885 5885 5885 5885 5885 5885 5885 5884 5884 5884 5883 5883 5883 5882 5882 5882 5881 5880 5879 5878 5878 5877 5876 5874 5874 5873 5872 5870 5869 5867 5866 5864 5862 5860 5858 5857 5855 5854 5853 5851 5849 5847 5844 5841 5838 5837 5836 5835 5834 5834 5831 5828 5825 5821 5818 5815 5811 5809 5807 5804 5802 5800 5797 5793 5792 5790 5787 5784 5781 5778 5776 5774
5880 5880 5880 5881 5881 5881 5882 5882 5882 5883 5883 5883 5883 5883 5883 5883 5883 5883 5883 5883 5882 5882 5882 5882 5881 5881 5880 5880 5879 5878 5878 5877 5876 5875 5874 5873 5872 5871 5870 5869 5867 5865 5864 5862 5860 5858 5857 5855 5853 5852 5850 5848 5847 5845 5843 5840 5837 5834 5832 5830 5829 5828 5828 5826 5825 5823 5820 5816 5812 5807 5803 5801 5799 5796 5794 5790 5787 5785 5784 5781 5778 5776 5773 5771 5768
5877 5878 5878 5878 5879 5879 5879 5880 5880 5880 5881 5881 5881 5881 5881 5881 5881 5881 5880 5880 5880 5880 5880 5879 5879 5878 5878 5877 5876 5876 5875 5874 5873 5872 5871 5870 5869 5867 5866 5865 5864 5862 5860 5859 5857 5855 5853 5851 5849 5848 5846 5844 5842 5840 5838 5835 5833 5831 5827 5825 5823 5821 5820 5819 5818 5818 5817 5814 5809 5804 5800 5796 5793 5791 5788 5785 5781 5779 5777 5774 5772 5769 5767 5766 5763
5875 5875 5875 5875 5876 5876 5877 5877 5878 5878 5878 5879 5878 5878 5878 5879 5879 5879 5878 5878 5878 5877 5877 5876 5876 5875 5875 5874 5873 5873 5872 5871 5870 5869 5868 5867 5866 5864 5863 5861 5860 5858 5857 5855 5853 5851 5849 5848 5846 5844 5842 5839 5837 5835 5833 5831 5829 5827 5824 5820 5817 5814 5812 5811 5810 5809 5811 5811 5808 5802 5797 5793 5790 5787 5784 5780 5777 5774 5772 5768 5765 5763 5761 5758 5756
5872 5872 5872 5872 5873 5873 5874 5874 5874 5875 5875 5875 5876 5876 5875 5876 5876 5876 5876 5875 5875 5874 5874 5873 5873 5873 5872 5871 5870 5869 5869 5867 5866 5865 5864 5863 5862 5861 5859 5857 5856 5854 5853 5851 5849 5847 5846 5844 5842 5840 5838 5835 5833 5831 5829 5826 5824 5822 5819 5816 5813 5809 5806 5803 5801 5800 5801 5803 5804 5800 5793 5788 5786 5783 5780 5777 5773 5770 5768 5764 5760 5758 5755 5752 5750
5869 5869 5869 5869 5870 5870 5871 5871 5871 5872 5872 5872 5872 5873 5873 5873 5873 5873 5873 5872 5872 5871 5871 5870 5870 5869 5869 5868 5867 5866 5865 5864 5862 5861 5860 5859 5858 5856 5855 5853 5852 5850 5849 5847 5845 5843 5841 5839 5837 5835 5833 5831 5828 5825 5823 5821 5818 5816 5814 5811 5809 5805 5801 5797 5794 5792 5790 5791 5795 5795 5789 5784 5782 5779 5775 5772 5769 5766 5763 5760 5757 5753 5750 5747 5744
5866 5866 5866 5867 5867 5867 5867 5868 5868 5868 5868 5868 5869 5869 5869 5870 5870 5869 5869 5869 5868 5868 5867 5867 5867 5866 5865 5864 5863 5862 5861 5860 5859 5857 5856 5854 5853 5852 5850 5849 5848 5846 5844 5843 5841 5839 5837 5835 5833 5830 5828 5826 5823 5821 5819 5816 5813 5811 5808 5805 5803 5800 5797 5793 5789 5785 5782 5781 5783 5786 5784 5779 5777 5776 5772 5767 5764 5761 5758 5754 5752 5749 5745 5742 5739
5864 5864 5864 5864 5864 5864 5864 5864 5865 5865 5865 5865 5866 5866 5866 5866 5866 5866 5866 5865 5865 5864 5864 5863 5862 5862 5861 5860 5859 5858 5857 5856 5854 5853 5851 5850 5848 5847 5846 5844 5843 5841 5840 5838 5836 5834 5832 5830 5828 5826 5823 5821 5819 5816 5814 5811 5808 5805 5802 5798 5796 5794 5791 5788 5784 5780 5776 5774 5772 5774 5776 5772 5771 5771 5768 5764 5761 5758 5755 5751 5748 5744 5741 5738 5734